STARLINK-36983

Last updated on Sun Apr 12 2026 00:02:08 GMT+0000 (Coordinated Universal Time)

1 68323U 26059C 26101.50307183 .00196131 00000+0 97151-3 0 9997 2 68323 53.1576 198.4351 0001015 82.4673 277.6465 15.80947107 3168
UTC large
Height (km)
Speed (km/s)
/
Latitude / Longitude
Inclination (degrees)
Orbital Period (minutes)
Azimuth
Elevation
Range (km)
Doppler Factor

Next 0 passes for location: London (51.5072 / 0.1276)

Sorry there are no passes over London.
STARLINK-36983